| time (UTC) | temp F | wind direction | speed MPH | gust MPH | rain 1hr in | rain 24hr in | rain mn in | humidity % | barometer mb |
| 20260504050511 | 41 | 0 | 0.0 | 1.0 | 0.02 | 0.03 | 0.03 | 92 | 1017.5 |
| 20260504045510 | 41 | 46 | 0.0 | 1.0 | 0.02 | 0.03 | 0.03 | 91 | 1017.5 |
| 20260504045010 | 41 | 51 | 0.0 | 1.0 | 0.02 | 0.03 | 0.03 | 91 | 1017.6 |
| 20260504044529 | 42 | 0 | 0.0 | 1.0 | 0.02 | 0.03 | 0.03 | 91 | 1017.6 |
| 20260504044010 | 42 | 327 | 0.0 | 2.0 | 0.03 | 0.03 | 0.03 | 90 | 1017.5 |
| 20260504043510 | 42 | 0 | 0.0 | 2.0 | 0.02 | 0.02 | 0.02 | 90 | 1017.7 |
| 20260504043029 | 42 | 335 | 0.0 | 1.0 | 0.02 | 0.02 | 0.02 | 90 | 1017.8 |
| 20260504042509 | 42 | 345 | 0.0 | 3.0 | 0.02 | 0.02 | 0.02 | 89 | 1017.7 |
| 20260504042011 | 42 | 77 | 0.0 | 3.0 | 0.02 | 0.02 | 0.02 | 89 | 1017.6 |
| 20260504041539 | 42 | 57 | 0.0 | 3.0 | 0.02 | 0.02 | 0.02 | 88 | 1017.8 |
| 20260504041008 | 42 | 81 | 0.0 | 2.0 | 0.02 | 0.02 | 0.02 | 88 | 1017.8 |
| 20260504040510 | 43 | 0 | 0.0 | 2.0 | 0.01 | 0.01 | 0.01 | 87 | 1017.8 |
| 20260504040032 | 43 | 92 | 0.0 | 1.0 | 0.01 | 0.01 | 0.01 | 87 | 1017.9 |
| 20260504035510 | 43 | 0 | 0.0 | 1.0 | 0.01 | 0.01 | 0.01 | 87 | 1017.9 |
| 20260504035011 | 43 | 38 | 0.0 | 1.0 | 0.01 | 0.01 | 0.01 | 86 | 1018.0 |
| 20260504034533 | 43 | 37 | 0.0 | 2.0 | 0.01 | 0.01 | 0.01 | 85 | 1018.1 |
| 20260504034010 | 44 | 0 | 0.0 | 2.0 | 0.00 | 0.00 | 0.00 | 85 | 1018.1 |
| 20260504033509 | 44 | 38 | 0.0 | 2.0 | 0.00 | 0.00 | 0.00 | 84 | 1018.2 |
| 20260504033028 | 44 | 348 | 0.0 | 2.0 | 0.00 | 0.00 | 0.00 | 83 | 1018.1 |
| 20260504032515 | 44 | 0 | 0.0 | 2.0 | 0.00 | 0.00 | 0.00 | 82 | 1018.1 |
| 20260504032011 | 44 | 0 | 0.0 | 3.0 | 0.00 | 0.00 | 0.00 | 81 | 1018.2 |
| 20260504031533 | 45 | 55 | 0.0 | 3.0 | 0.00 | 0.00 | 0.00 | 81 | 1018.2 |
| 20260504031010 | 45 | 115 | 0.0 | 3.0 | 0.00 | 0.00 | 0.00 | 80 | 1018.2 |
| 20260504030509 | 45 | 82 | 0.0 | 3.0 | 0.00 | 0.00 | 0.00 | 79 | 1018.2 |
| 20260504030034 | 45 | 126 | 0.0 | 3.0 | 0.00 | 0.00 | 0.00 | 77 | 1018.3 |
| 20260504025509 | 45 | 34 | 0.0 | 3.0 | 0.00 | 0.00 | 0.00 | 76 | 1018.1 |
| 20260504025010 | 45 | 112 | 0.0 | 3.0 | 0.00 | 0.00 | 0.00 | 75 | 1018.3 |
| 20260504024531 | 45 | 104 | 0.0 | 3.0 | 0.00 | 0.00 | 0.00 | 73 | 1018.2 |
| 20260504024010 | 46 | 125 | 0.0 | 2.0 | 0.00 | 0.00 | 0.00 | 75 | 1018.2 |
| 20260504023509 | 46 | 91 | 0.0 | 2.0 | 0.00 | 0.00 | 0.00 | 74 | 1018.1 |
| 20260504023030 | 46 | 119 | 0.0 | 2.0 | 0.00 | 0.00 | 0.00 | 72 | 1018.2 |
| 20260504022511 | 46 | 89 | 0.0 | 6.0 | 0.00 | 0.00 | 0.00 | 72 | 1018.1 |
| 20260504022009 | 47 | 78 | 1.0 | 6.0 | 0.00 | 0.00 | 0.00 | 69 | 1018.2 |
| 20260504021530 | 47 | 129 | 1.0 | 4.0 | 0.00 | 0.00 | 0.00 | 67 | 1018.2 |
| 20260504021012 | 47 | 128 | 0.0 | 7.0 | 0.00 | 0.00 | 0.00 | 68 | 1018.2 |
| 20260504020510 | 48 | 72 | 0.0 | 7.0 | 0.00 | 0.00 | 0.00 | 66 | 1018.1 |
| 20260504020036 | 48 | 143 | 2.0 | 7.0 | 0.00 | 0.00 | 0.00 | 63 | 1018.1 |
| 20260504015509 | 48 | 0 | 0.0 | 2.0 | 0.00 | 0.00 | 0.00 | 63 | 1018.2 |
| 20260504015010 | 48 | 87 | 0.0 | 3.0 | 0.00 | 0.00 | 0.00 | 62 | 1018.1 |
| 20260504014532 | 49 | 94 | 0.0 | 3.0 | 0.00 | 0.00 | 0.00 | 61 | 1018.2 |
| 20260504014010 | 49 | 123 | 0.0 | 1.0 | 0.00 | 0.00 | 0.00 | 62 | 1018.3 |
| 20260504013513 | 49 | 132 | 0.0 | 3.0 | 0.00 | 0.00 | 0.00 | 64 | 1018.3 |
| 20260504013032 | 49 | 54 | 1.0 | 3.0 | 0.00 | 0.00 | 0.00 | 62 | 1018.3 |
| 20260504012511 | 49 | 89 | 0.0 | 3.0 | 0.00 | 0.00 | 0.00 | 61 | 1018.3 |
| 20260504012011 | 49 | 344 | 1.0 | 3.0 | 0.00 | 0.00 | 0.00 | 60 | 1018.4 |
| 20260504011530 | 49 | 131 | 0.0 | 3.0 | 0.00 | 0.00 | 0.00 | 60 | 1018.3 |
| 20260504011010 | 49 | 22 | 1.0 | 3.0 | 0.00 | 0.00 | 0.00 | 58 | 1018.3 |
| 20260504010511 | 49 | 123 | 1.0 | 3.0 | 0.00 | 0.00 | 0.00 | 57 | 1018.4 |
| 20260504010029 | 49 | 65 | 0.0 | 3.0 | 0.00 | 0.00 | 0.00 | 58 | 1018.4 |
| 20260504005510 | 49 | 0 | 0.0 | 2.0 | 0.00 | 0.00 | 0.00 | 58 | 1018.4 |
| 20260504005011 | 49 | 84 | 1.0 | 3.0 | 0.00 | 0.00 | 0.00 | 57 | 1018.5 |
| 20260504004528 | 49 | 88 | 0.0 | 5.0 | 0.00 | 0.00 | 0.00 | 57 | 1018.6 |
| 20260504004010 | 49 | 121 | 0.0 | 6.0 | 0.00 | 0.00 | 0.00 | 57 | 1018.5 |
| 20260504003510 | 49 | 125 | 1.0 | 8.0 | 0.00 | 0.00 | 0.00 | 57 | 1018.4 |
| 20260504003028 | 49 | 0 | 0.0 | 8.0 | 0.00 | 0.00 | 0.00 | 57 | 1018.5 |
| 20260504002510 | 50 | 202 | 2.0 | 9.0 | 0.00 | 0.00 | 0.00 | 56 | 1018.5 |
| 20260504002012 | 50 | 166 | 0.0 | 10.0 | 0.00 | 0.00 | 0.00 | 57 | 1018.4 |
| 20260504001536 | 50 | 122 | 4.0 | 10.0 | 0.00 | 0.00 | 0.00 | 54 | 1018.4 |
| 20260504001008 | 50 | 198 | 1.0 | 4.0 | 0.00 | 0.00 | 0.00 | 53 | 1018.4 |
| 20260504000509 | 50 | 117 | 0.0 | 9.0 | 0.00 | 0.00 | 0.00 | 54 | 1018.3 |
| 20260504000030 | 50 | 133 | 2.0 | 9.0 | 0.00 | 0.00 | 0.00 | 53 | 1018.6 |
| 20260503235509 | 51 | 203 | 2.0 | 10.0 | 0.00 | 0.00 | 0.00 | 52 | 1018.5 |
| 20260503235010 | 51 | 113 | 3.0 | 10.0 | 0.00 | 0.00 | 0.00 | 50 | 1018.4 |
| 20260503234529 | 52 | 111 | 2.0 | 7.0 | 0.00 | 0.00 | 0.00 | 49 | 1018.4 |
| 20260503234011 | 52 | 96 | 0.0 | 7.0 | 0.00 | 0.00 | 0.00 | 48 | 1018.6 |
| 20260503233510 | 52 | 144 | 3.0 | 7.0 | 0.00 | 0.00 | 0.00 | 46 | 1018.7 |
| 20260503233029 | 52 | 135 | 1.0 | 5.0 | 0.00 | 0.00 | 0.00 | 48 | 1018.7 |
| 20260503232509 | 52 | 155 | 1.0 | 5.0 | 0.00 | 0.00 | 0.00 | 46 | 1018.7 |
| 20260503232010 | 52 | 216 | 2.0 | 4.0 | 0.00 | 0.00 | 0.00 | 46 | 1018.6 |
| 20260503231531 | 52 | 113 | 1.0 | 5.0 | 0.00 | 0.00 | 0.00 | 46 | 1018.7 |
| 20260503231011 | 52 | 119 | 1.0 | 6.0 | 0.00 | 0.00 | 0.00 | 47 | 1018.7 |
| 20260503230513 | 52 | 134 | 2.0 | 11.0 | 0.00 | 0.00 | 0.00 | 46 | 1018.8 |
| 20260503230037 | 52 | 130 | 2.0 | 11.0 | 0.00 | 0.00 | 0.00 | 46 | 1018.9 |
| 20260503225507 | 52 | 88 | 1.0 | 9.0 | 0.00 | 0.00 | 0.00 | 45 | 1018.8 |
| 20260503225010 | 52 | 71 | 4.0 | 9.0 | 0.00 | 0.00 | 0.00 | 46 | 1018.9 |
| 20260503224530 | 52 | 159 | 2.0 | 8.0 | 0.00 | 0.00 | 0.00 | 45 | 1018.9 |
| 20260503224008 | 52 | 132 | 1.0 | 7.0 | 0.00 | 0.00 | 0.00 | 46 | 1018.8 |
| 20260503223511 | 52 | 135 | 1.0 | 9.0 | 0.00 | 0.00 | 0.00 | 45 | 1018.8 |
| 20260503223028 | 52 | 172 | 3.0 | 9.0 | 0.00 | 0.00 | 0.00 | 45 | 1019.0 |
| 20260503222510 | 52 | 214 | 1.0 | 9.0 | 0.00 | 0.00 | 0.00 | 46 | 1019.0 |
| 20260503222010 | 52 | 220 | 2.0 | 8.0 | 0.00 | 0.00 | 0.00 | 46 | 1019.1 |
| 20260503221531 | 52 | 159 | 3.0 | 7.0 | 0.00 | 0.00 | 0.00 | 45 | 1019.1 |
| 20260503221011 | 52 | 148 | 3.0 | 7.0 | 0.00 | 0.00 | 0.00 | 46 | 1019.1 |
| 20260503220508 | 52 | 82 | 1.0 | 4.0 | 0.00 | 0.00 | 0.00 | 45 | 1019.1 |
| 20260503220030 | 52 | 103 | 1.0 | 4.0 | 0.00 | 0.00 | 0.00 | 46 | 1019.1 |
| 20260503215510 | 52 | 132 | 1.0 | 5.0 | 0.00 | 0.00 | 0.00 | 46 | 1019.1 |
| 20260503215013 | 52 | 0 | 1.0 | 6.0 | 0.00 | 0.00 | 0.00 | 45 | 1019.1 |
| 20260503214538 | 53 | 120 | 2.0 | 8.0 | 0.00 | 0.00 | 0.00 | 45 | 1019.2 |
| 20260503214010 | 53 | 173 | 3.0 | 10.0 | 0.00 | 0.00 | 0.00 | 46 | 1019.2 |
| 20260503213510 | 53 | 149 | 1.0 | 10.0 | 0.00 | 0.00 | 0.00 | 45 | 1019.3 |
| 20260503213028 | 53 | 174 | 1.0 | 5.0 | 0.00 | 0.00 | 0.00 | 44 | 1019.2 |
| 20260503212513 | 53 | 0 | 1.0 | 7.0 | 0.00 | 0.00 | 0.00 | 44 | 1019.2 |
| 20260503212009 | 53 | 78 | 1.0 | 7.0 | 0.00 | 0.00 | 0.00 | 43 | 1019.1 |
| 20260503211530 | 53 | 111 | 1.0 | 6.0 | 0.00 | 0.00 | 0.00 | 44 | 1019.0 |
| 20260503211018 | 53 | 119 | 1.0 | 2.0 | 0.00 | 0.00 | 0.00 | 44 | 1019.0 |
| 20260503210511 | 52 | 84 | 0.0 | 4.0 | 0.00 | 0.00 | 0.00 | 45 | 1019.1 |
| 20260503210030 | 52 | 0 | 1.0 | 4.0 | 0.00 | 0.00 | 0.00 | 45 | 1019.1 |
| 20260503205507 | 52 | 69 | 1.0 | 3.0 | 0.00 | 0.00 | 0.00 | 46 | 1019.2 |
| 20260503205010 | 52 | 76 | 1.0 | 4.0 | 0.00 | 0.00 | 0.00 | 47 | 1019.2 |
| 20260503204529 | 52 | 0 | 1.0 | 4.0 | 0.00 | 0.00 | 0.00 | 45 | 1019.2 |
| 20260503204008 | 52 | 96 | 0.0 | 4.0 | 0.00 | 0.00 | 0.00 | 44 | 1019.3 |
| 20260503203512 | 52 | 82 | 1.0 | 4.0 | 0.00 | 0.00 | 0.00 | 44 | 1019.5 |
| 20260503203035 | 52 | 115 | 1.0 | 4.0 | 0.00 | 0.00 | 0.00 | 44 | 1019.5 |
| 20260503202511 | 52 | 117 | 1.0 | 4.0 | 0.00 | 0.00 | 0.00 | 45 | 1019.3 |
| 20260503202015 | 52 | 145 | 1.0 | 4.0 | 0.00 | 0.00 | 0.00 | 46 | 1019.4 |
| 20260503201528 | 52 | 85 | 1.0 | 6.0 | 0.00 | 0.00 | 0.00 | 45 | 1019.4 |
| 20260503201006 | 52 | 20 | 1.0 | 6.0 | 0.00 | 0.00 | 0.00 | 44 | 1019.5 |
| 20260503200510 | 52 | 111 | 1.0 | 6.0 | 0.00 | 0.00 | 0.00 | 48 | 1019.5 |
| 20260503200029 | 52 | 128 | 2.0 | 6.0 | 0.00 | 0.00 | 0.00 | 45 | 1019.4 |
| 20260503195513 | 52 | 119 | 3.0 | 5.0 | 0.00 | 0.00 | 0.00 | 46 | 1019.5 |
| 20260503195008 | 52 | 15 | 1.0 | 3.0 | 0.00 | 0.00 | 0.00 | 46 | 1019.4 |
| 20260503194529 | 52 | 61 | 1.0 | 4.0 | 0.00 | 0.00 | 0.00 | 46 | 1019.2 |
| 20260503194011 | 51 | 59 | 2.0 | 4.0 | 0.00 | 0.00 | 0.00 | 45 | 1019.3 |
| 20260503193509 | 51 | 148 | 1.0 | 3.0 | 0.00 | 0.00 | 0.00 | 45 | 1019.3 |
| 20260503193041 | 51 | 350 | 1.0 | 3.0 | 0.00 | 0.00 | 0.00 | 46 | 1019.5 |
| 20260503192508 | 51 | 161 | 1.0 | 3.0 | 0.00 | 0.00 | 0.00 | 46 | 1019.5 |
| 20260503192009 | 51 | 71 | 0.0 | 4.0 | 0.00 | 0.00 | 0.00 | 46 | 1019.5 |
| 20260503191559 | 51 | 37 | 2.0 | 4.0 | 0.00 | 0.00 | 0.00 | 46 | 1019.4 |
| 20260503191010 | 51 | 107 | 1.0 | 3.0 | 0.00 | 0.00 | 0.00 | 45 | 1019.4 |
| 20260503190508 | 51 | 171 | 1.0 | 5.0 | 0.00 | 0.00 | 0.00 | 45 | 1019.4 |
| 20260503190034 | 51 | 80 | 0.0 | 5.0 | 0.00 | 0.00 | 0.00 | 47 | 1019.5 |
| 20260503185510 | 51 | 107 | 1.0 | 3.0 | 0.00 | 0.00 | 0.00 | 47 | 1019.5 |
| 20260503185009 | 50 | 102 | 1.0 | 3.0 | 0.00 | 0.00 | 0.00 | 48 | 1019.4 |
| 20260503184528 | 50 | 157 | 1.0 | 4.0 | 0.00 | 0.00 | 0.00 | 49 | 1019.5 |
| 20260503184010 | 50 | 58 | 1.0 | 4.0 | 0.00 | 0.00 | 0.00 | 47 | 1019.7 |
| 20260503183515 | 50 | 127 | 1.0 | 4.0 | 0.00 | 0.00 | 0.00 | 48 | 1019.5 |
| 20260503183028 | 50 | 105 | 1.0 | 5.0 | 0.00 | 0.00 | 0.00 | 49 | 1019.5 |
| 20260503182509 | 50 | 132 | 2.0 | 5.0 | 0.00 | 0.00 | 0.00 | 49 | 1019.5 |
| 20260503182010 | 50 | 121 | 0.0 | 4.0 | 0.00 | 0.00 | 0.00 | 51 | 1019.5 |
| 20260503181539 | 50 | 106 | 1.0 | 4.0 | 0.00 | 0.00 | 0.00 | 50 | 1019.4 |
| 20260503181011 | 49 | 65 | 1.0 | 4.0 | 0.00 | 0.00 | 0.00 | 51 | 1019.5 |
| 20260503180507 | 49 | 116 | 1.0 | 4.0 | 0.00 | 0.00 | 0.00 | 52 | 1019.7 |
| 20260503180033 | 48 | 24 | 2.0 | 4.0 | 0.00 | 0.00 | 0.00 | 53 | 1019.5 |
| 20260503175509 | 48 | 105 | 1.0 | 4.0 | 0.00 | 0.00 | 0.00 | 55 | 1019.5 |
| 20260503175026 | 48 | 71 | 1.0 | 3.0 | 0.00 | 0.00 | 0.00 | 55 | 1019.7 |
| 20260503174534 | 47 | 119 | 0.0 | 3.0 | 0.00 | 0.00 | 0.00 | 56 | 1019.7 |
| 20260503174012 | 47 | 94 | 0.0 | 3.0 | 0.00 | 0.00 | 0.00 | 57 | 1019.6 |
| 20260503173509 | 47 | 130 | 1.0 | 4.0 | 0.00 | 0.00 | 0.00 | 56 | 1019.7 |
| 20260503173030 | 46 | 52 | 0.0 | 4.0 | 0.00 | 0.00 | 0.00 | 57 | 1019.9 |
| 20260503172510 | 46 | 214 | 0.0 | 3.0 | 0.00 | 0.00 | 0.00 | 58 | 1019.9 |
| 20260503172015 | 46 | 120 | 1.0 | 5.0 | 0.00 | 0.00 | 0.00 | 57 | 1019.9 |
| 20260503171531 | 46 | 78 | 1.0 | 5.0 | 0.00 | 0.00 | 0.00 | 57 | 1019.8 |
| 20260503171009 | 45 | 65 | 0.0 | 3.0 | 0.00 | 0.00 | 0.00 | 58 | 1019.7 |
| 20260503170511 | 45 | 113 | 0.0 | 2.0 | 0.00 | 0.00 | 0.00 | 59 | 1019.8 |
| 20260503151014 | 42 | 44 | 0.0 | 2.0 | 0.00 | 0.02 | 0.00 | 67 | 1020.1 |
| 20260503150511 | 42 | 0 | 0.0 | 2.0 | 0.00 | 0.02 | 0.00 | 67 | 1020.0 |
| 20260503131011 | 40 | 0 | 0.0 | 1.0 | 0.00 | 0.02 | 0.00 | 72 | 1020.3 |
| 20260503130507 | 40 | 0 | 0.0 | 1.0 | 0.00 | 0.02 | 0.00 | 71 | 1020.1 |
| 20260503110508 | 38 | 0 | 0.0 | 0.0 | 0.00 | 0.02 | 0.00 | 77 | 1020.5 |
| 20260503090508 | 38 | 0 | 0.0 | 0.0 | 0.00 | 0.03 | 0.00 | 83 | 1020.3 |
| 20260503081539 | 38 | 0 | 0.0 | 0.0 | 0.00 | 0.03 | 0.00 | 81 | 1020.1 |
| 20260503081026 | 39 | 0 | 0.0 | 0.0 | 0.00 | 0.03 | 0.00 | 81 | 1020.1 |
| 20260503080510 | 39 | 0 | 0.0 | 0.0 | 0.00 | 0.03 | 0.00 | 80 | 1020.1 |
| 20260503072514 | 41 | 0 | 0.0 | 0.0 | 0.00 | 0.03 | 0.03 | 77 | 1019.8 |
| 20260503072014 | 41 | 0 | 0.0 | 0.0 | 0.00 | 0.03 | 0.03 | 78 | 1019.8 |
| 20260503071530 | 41 | 0 | 0.0 | 0.0 | 0.00 | 0.03 | 0.03 | 76 | 1019.8 |
| 20260503071011 | 41 | 0 | 0.0 | 0.0 | 0.00 | 0.03 | 0.03 | 76 | 1019.9 |
| 20260503070514 | 42 | 0 | 0.0 | 0.0 | 0.00 | 0.03 | 0.03 | 76 | 1019.7 |
| 20260503055009 | 45 | 0 | 0.0 | 0.0 | 0.00 | 0.05 | 0.03 | 70 | 1019.0 |
| 20260503054543 | 45 | 0 | 0.0 | 0.0 | 0.00 | 0.05 | 0.03 | 70 | 1018.9 |
| 20260503054011 | 45 | 0 | 0.0 | 0.0 | 0.00 | 0.05 | 0.03 | 71 | 1019.0 |
| 20260503053511 | 46 | 0 | 0.0 | 0.0 | 0.00 | 0.05 | 0.03 | 70 | 1018.9 |
| 20260503053031 | 46 | 0 | 0.0 | 0.0 | 0.00 | 0.05 | 0.03 | 71 | 1018.8 |
| 20260503052508 | 46 | 0 | 0.0 | 0.0 | 0.00 | 0.05 | 0.03 | 69 | 1018.8 |